Atmospheric History
08/18/2019 23:31  to  8/19/2019 23:31
Change End Date:
To complete the export process:
1) Select all of the data below
2) Copy the data to the clipboard
3) Open a word processor such as Notepad
4) Paste the data into the word processor
5) Save the file

Date/Time (MDT), AirTemp, RH, Dewpoint ,AvgWindSpeed, GustWindSpeed, WindDirection, PrecipType, PrecipIntensity, PrecipAccumulation, PrecipRate
08/19/2019 23:21, 65, 36, 38 ,21, 27, NE, None, None, ,  
08/19/2019 23:19, 65, 36, 38 ,21, 29, NE, None, None, ,  
08/19/2019 23:11, 65, 36, 38 ,25, 34, NE, None, None, ,  
08/19/2019 23:04, 65, 36, 38 ,22, 30, N, None, None, ,  
08/19/2019 23:00, 65, 36, 38 ,26, 30, NE, None, None, ,  
08/19/2019 22:50, 66, 35, 38 ,26, 32, NE, None, None, ,  
08/19/2019 22:49, 66, 35, 38 ,25, 31, NE, None, None, ,  
08/19/2019 22:40, 66, 35, 38 ,23, 35, NE, None, None, ,  
08/19/2019 22:34, 66, 35, 38 ,22, 34, N, None, None, ,  
08/19/2019 22:30, 66, 34, 37 ,24, 35, NE, None, None, ,  
08/19/2019 22:20, 67, 33, 37 ,20, 31, N, None, None, ,  
08/19/2019 22:19, 67, 32, 37 ,21, 31, N, None, None, ,  
08/19/2019 22:10, 68, 31, 36 ,22, 30, N, None, None, ,  
08/19/2019 22:04, 68, 30, 36 ,19, 27, N, None, None, ,  
08/19/2019 22:00, 68, 30, 36 ,22, 25, N, None, None, ,  
08/19/2019 21:50, 68, 29, 35 ,22, 27, N, None, None, ,  
08/19/2019 21:49, 68, 29, 35 ,21, 27, N, None, None, ,  
08/19/2019 21:40, 69, 28, 35 ,21, 27, N, None, None, ,  
08/19/2019 21:34, 69, 28, 35 ,21, 26, N, None, None, ,  
08/19/2019 21:30, 69, 28, 35 ,21, 27, N, None, None, ,  
08/19/2019 21:20, 69, 26, 34 ,21, 28, N, None, None, ,  
08/19/2019 21:19, 69, 26, 34 ,21, 28, N, None, None, ,  
08/19/2019 21:10, 70, 25, 33 ,21, 27, N, None, None, ,  
08/19/2019 21:04, 70, 24, 33 ,19, 24, N, None, None, ,  
08/19/2019 21:00, 70, 24, 33 ,17, 24, N, None, None, ,  
08/19/2019 20:50, 70, 24, 32 ,12, 21, N, None, None, ,  
08/19/2019 20:49, 70, 24, 32 ,12, 21, N, None, None, ,  
08/19/2019 20:40, 71, 23, 33 ,19, 23, N, None, None, ,  
08/19/2019 20:34, 72, 23, 33 ,18, 23, N, None, None, ,  
08/19/2019 20:30, 72, 23, 33 ,18, 24, N, None, None, ,  
08/19/2019 20:20, 72, 23, 33 ,19, 22, N, None, None, ,  
08/19/2019 20:19, 72, 23, 33 ,20, 22, N, None, None, ,  
08/19/2019 20:10, 72, 23, 33 ,17, 22, N, None, None, ,  
08/19/2019 20:04, 72, 23, 33 ,14, 20, N, None, None, ,  
08/19/2019 20:00, 73, 23, 33 ,15, 20, N, None, None, ,  
08/19/2019 19:49, 74, 23, 34 ,17, 21, N, None, None, ,  
08/19/2019 19:49, 74, 23, 34 ,17, 21, N, None, None, ,  
08/19/2019 19:39, 74, 23, 34 ,13, 17, N, None, None, ,  
08/19/2019 19:34, 75, 23, 35 ,13, 19, N, None, None, ,  
08/19/2019 19:29, 75, 22, 34 ,14, 19, N, None, None, ,  
08/19/2019 19:19, 76, 22, 35 ,13, 16, N, None, None, ,  
08/19/2019 19:19, 76, 22, 35 ,12, 16, N, None, None, ,  
08/19/2019 19:09, 77, 22, 35 ,15, 21, N, None, None, ,  
08/19/2019 19:04, 77, 22, 36 ,14, 17, N, None, None, ,  
08/19/2019 18:59, 78, 22, 36 ,11, 17, N, None, None, ,  
08/19/2019 18:49, 79, 21, 36 ,11, 16, N, None, None, ,  
08/19/2019 18:49, 79, 21, 36 ,11, 16, N, None, None, ,  
08/19/2019 18:39, 81, 19, 36 ,7, 11, NW, None, None, ,  
08/19/2019 18:34, 81, 19, 36 ,8, 10, NW, None, None, ,  
08/19/2019 18:29, 81, 19, 36 ,8, 12, NW, None, None, ,  
08/19/2019 18:19, 82, 19, 36 ,9, 11, NW, None, None, ,  
08/19/2019 18:09, 82, 18, 36 ,9, 12, NW, None, None, ,  
08/19/2019 18:04, 82, 18, 35 ,9, 12, NW, None, None, ,  
08/19/2019 17:59, 83, 17, 35 ,9, 11, NW, None, None, ,  
08/19/2019 17:49, 83, 17, 35 ,7, 10, NW, None, None, ,  
08/19/2019 17:49, 83, 17, 35 ,7, 10, NW, None, None, ,  
08/19/2019 17:39, 83, 18, 36 ,9, 10, W, None, None, ,  
08/19/2019 17:34, 83, 17, 35 ,6, 11, W, None, None, ,  
08/19/2019 17:29, 83, 17, 36 ,6, 11, W, None, None, ,  
08/19/2019 17:19, 83, 18, 36 ,10, 16, W, None, None, ,  
08/19/2019 17:19, 83, 18, 36 ,9, 16, W, None, None, ,  
08/19/2019 17:09, 83, 17, 35 ,9, 15, NW, None, None, ,  
08/19/2019 17:04, 84, 17, 35 ,9, 18, NW, None, None, ,  
08/19/2019 16:59, 84, 17, 35 ,9, 18, W, None, None, ,  
08/19/2019 16:49, 84, 17, 35 ,9, 13, W, None, None, ,  
08/19/2019 16:49, 84, 17, 35 ,9, 13, W, None, None, ,  
08/19/2019 16:39, 84, 17, 35 ,12, 14, W, None, None, ,  
08/19/2019 16:34, 84, 17, 35 ,9, 16, W, None, None, ,  
08/19/2019 16:28, 84, 17, 35 ,9, 18, W, None, None, ,  
08/19/2019 16:19, 85, 17, 36 ,6, 11, W, None, None, ,  
08/19/2019 16:18, 85, 17, 36 ,6, 10, W, None, None, ,  
08/19/2019 16:08, 85, 18, 37 ,6, 16, W, None, None, ,  
08/19/2019 16:04, 84, 17, 36 ,9, 16, SW, None, None, ,  
08/19/2019 15:58, 83, 17, 35 ,12, 16, NW, None, None, ,  
08/19/2019 15:49, 83, 17, 35 ,6, 16, NW, None, None, ,  
08/19/2019 15:48, 83, 17, 35 ,8, 16, W, None, None, ,  
08/19/2019 15:38, 84, 17, 35 ,10, 16, NW, None, None, ,  
08/19/2019 15:34, 83, 17, 36 ,12, 16, W, None, None, ,  
08/19/2019 15:28, 83, 17, 35 ,13, 18, W, None, None, ,  
08/19/2019 15:19, 83, 17, 36 ,14, 19, W, None, None, ,  
08/19/2019 15:18, 83, 17, 36 ,9, 15, W, None, None, ,  
08/19/2019 15:08, 83, 18, 36 ,11, 19, SW, None, None, ,  
08/19/2019 15:04, 83, 17, 35 ,10, 19, SW, None, None, ,  
08/19/2019 14:58, 83, 17, 34 ,12, 19, W, None, None, ,  
08/19/2019 14:49, 83, 17, 34 ,12, 22, W, None, None, ,  
08/19/2019 14:48, 83, 17, 34 ,12, 22, W, None, None, ,  
08/19/2019 14:38, 83, 17, 34 ,12, 19, W, None, None, ,  
08/19/2019 14:34, 83, 17, 34 ,11, 19, W, None, None, ,  
08/19/2019 14:28, 82, 17, 34 ,14, 18, W, None, None, ,  
08/19/2019 14:19, 82, 17, 35 ,14, 19, SW, None, None, ,  
08/19/2019 14:18, 82, 18, 35 ,14, 19, W, None, None, ,  
08/19/2019 14:08, 82, 17, 35 ,14, 19, W, None, None, ,  
08/19/2019 14:04, 82, 18, 35 ,15, 19, W, None, None, ,  
08/19/2019 13:58, 82, 18, 36 ,16, 19, W, None, None, ,  
08/19/2019 13:49, 82, 18, 36 ,12, 20, W, None, None, ,  
08/19/2019 13:48, 82, 18, 36 ,13, 20, SW, None, None, ,  
08/19/2019 13:38, 81, 19, 36 ,14, 17, SW, None, None, ,  
08/19/2019 13:34, 82, 19, 36 ,13, 19, SW, None, None, ,  
08/19/2019 13:28, 81, 19, 36 ,15, 19, SW, None, None, ,  
08/19/2019 13:19, 81, 19, 36 ,16, 21, SW, None, None, ,  
08/19/2019 13:17, 81, 20, 37 ,15, 19, SW, None, None, ,  
08/19/2019 13:07, 81, 20, 36 ,14, 19, SW, None, None, ,  
08/19/2019 13:04, 81, 20, 37 ,11, 21, W, None, None, ,  
08/19/2019 12:57, 80, 20, 36 ,19, 21, SW, None, None, ,  
08/19/2019 12:49, 80, 21, 37 ,16, 22, W, None, None, ,  
08/19/2019 12:47, 80, 21, 37 ,14, 22, SW, None, None, ,  
08/19/2019 12:37, 80, 22, 38 ,14, 20, W, None, None, ,  
08/19/2019 12:34, 80, 22, 38 ,12, 20, SW, None, None, ,  
08/19/2019 12:27, 79, 22, 38 ,15, 17, SW, None, None, ,  
08/19/2019 12:19, 79, 23, 38 ,12, 20, W, None, None, ,  
08/19/2019 12:17, 79, 23, 38 ,15, 20, W, None, None, ,  
08/19/2019 12:07, 79, 24, 40 ,12, 17, SW, None, None, ,  
08/19/2019 12:04, 78, 25, 40 ,7, 14, SW, None, None, ,  
08/19/2019 11:57, 79, 25, 41 ,9, 12, SW, None, None, ,  
08/19/2019 11:49, 78, 25, 39 ,9, 14, SW, None, None, ,  
08/19/2019 11:47, 78, 25, 40 ,10, 14, W, None, None, ,  
08/19/2019 11:37, 78, 25, 40 ,9, 11, W, None, None, ,  
08/19/2019 11:34, 78, 26, 40 ,6, 11, NW, None, None, ,  
08/19/2019 11:27, 77, 26, 40 ,8, 11, W, None, None, ,  
08/19/2019 11:19, 76, 27, 40 ,5, 7, W, None, None, ,  
08/19/2019 11:17, 76, 28, 41 ,5, 7, SW, None, None, ,  
08/19/2019 11:07, 75, 28, 40 ,6, 10, W, None, None, ,  
08/19/2019 11:04, 75, 28, 40 ,6, 10, SW, None, None, ,  
08/19/2019 10:57, 75, 28, 40 ,7, 12, SW, None, None, ,  
08/19/2019 10:49, 75, 28, 40 ,8, 15, W, None, None, ,  
08/19/2019 10:47, 75, 27, 39 ,9, 15, SW, None, None, ,  
08/19/2019 10:37, 75, 28, 40 ,9, 15, W, None, None, ,  
08/19/2019 10:34, 75, 27, 39 ,11, 15, SW, None, None, ,  
08/19/2019 10:27, 75, 28, 40 ,7, 13, SW, None, None, ,  
08/19/2019 10:19, 74, 28, 40 ,10, 16, SW, None, None, ,  
08/19/2019 10:17, 74, 29, 40 ,7, 16, SW, None, None, ,  
08/19/2019 10:07, 74, 30, 41 ,4, 7, SW, None, None, ,  
08/19/2019 10:04, 74, 30, 41 ,4, 6, W, None, None, ,  
08/19/2019 09:56, 74, 30, 41 ,5, 6, W, None, None, ,  
08/19/2019 09:49, 74, 32, 42 ,1, 6, S, None, None, ,  
08/19/2019 09:46, 73, 31, 42 ,2, 5, SW, None, None, ,  
08/19/2019 09:36, 74, 32, 43 ,3, 4, E, None, None, ,  
08/19/2019 09:34, 74, 32, 42 ,1, 4, NE, None, None, ,  
08/19/2019 09:26, 73, 32, 41 ,1, 2, SE, None, None, ,  
08/19/2019 09:19, 72, 32, 40 ,2, 2, S, None, None, ,  
08/19/2019 09:16, 72, 32, 41 ,1, 3, S, None, None, ,  
08/19/2019 09:06, 71, 33, 40 ,2, 4, S, None, None, ,  
08/19/2019 09:04, 71, 34, 41 ,2, 4, S, None, None, ,  
08/19/2019 08:56, 70, 34, 41 ,1, 5, S, None, None, ,  
08/19/2019 08:49, 69, 35, 41 ,4, 5, S, None, None, ,  
08/19/2019 08:46, 69, 35, 41 ,3, 4, S, None, None, ,  
08/19/2019 08:36, 71, 34, 42 ,2, 3, SE, None, None, ,  
08/19/2019 08:34, 71, 35, 42 ,2, 3, SE, None, None, ,  
08/19/2019 08:26, 70, 36, 42 ,2, 4, SE, None, None, ,  
08/19/2019 08:19, 69, 38, 42 ,2, 5, S, None, None, ,  
08/19/2019 08:16, 68, 37, 42 ,3, 5, SE, None, None, ,  
08/19/2019 08:06, 67, 45, 45 ,4, 5, SE, None, None, ,  
08/19/2019 08:04, 67, 45, 45 ,4, 5, SE, None, None, ,  
08/19/2019 07:56, 65, 46, 44 ,4, 6, SE, None, None, ,  
08/19/2019 07:49, 64, 45, 43 ,6, 7, SE, None, None, ,  
08/19/2019 07:46, 64, 45, 42 ,6, 7, E, None, None, ,  
08/19/2019 07:36, 63, 45, 41 ,6, 7, E, None, None, ,  
08/19/2019 07:34, 63, 45, 41 ,6, 7, E, None, None, ,  
08/19/2019 07:26, 62, 45, 40 ,7, 9, E, None, None, ,  
08/19/2019 07:19, 60, 45, 40 ,7, 9, SE, None, None, ,  
08/19/2019 07:16, 59, 47, 39 ,9, 9, SE, None, None, ,  
08/19/2019 07:06, 56, 51, 38 ,7, 9, SE, None, None, ,  
08/19/2019 07:04, 56, 50, 38 ,6, 7, SE, None, None, ,  
08/19/2019 06:56, 56, 47, 37 ,6, 9, E, None, None, ,  
08/19/2019 06:49, 58, 45, 37 ,8, 11, E, None, None, ,  
08/19/2019 06:45, 58, 43, 37 ,10, 11, E, None, None, ,  
08/19/2019 06:35, 58, 43, 36 ,9, 11, E, None, None, ,  
08/19/2019 06:34, 58, 43, 36 ,8, 11, E, None, None, ,  
08/19/2019 06:25, 58, 42, 36 ,8, 10, E, None, None, ,  
08/19/2019 06:19, 58, 41, 35 ,9, 12, E, None, None, ,  
08/19/2019 06:15, 58, 41, 35 ,9, 12, E, None, None, ,  
08/19/2019 06:05, 58, 41, 35 ,9, 10, E, None, None, ,  
08/19/2019 06:04, 58, 41, 35 ,9, 9, E, None, None, ,  
08/19/2019 05:55, 59, 40, 35 ,8, 11, E, None, None, ,  
08/19/2019 05:49, 59, 39, 35 ,8, 12, E, None, None, ,  
08/19/2019 05:45, 60, 39, 35 ,9, 12, E, None, None, ,  
08/19/2019 05:35, 60, 38, 35 ,9, 11, E, None, None, ,  
08/19/2019 05:34, 60, 38, 35 ,9, 11, E, None, None, ,  
08/19/2019 05:25, 61, 37, 35 ,9, 11, E, None, None, ,  
08/19/2019 05:19, 62, 36, 35 ,10, 13, E, None, None, ,  
08/19/2019 05:15, 62, 36, 35 ,11, 14, E, None, None, ,  
08/19/2019 05:05, 62, 36, 35 ,13, 16, E, None, None, ,  
08/19/2019 05:04, 62, 36, 35 ,12, 15, E, None, None, ,  
08/19/2019 04:55, 62, 36, 35 ,12, 14, E, None, None, ,  
08/19/2019 04:49, 62, 36, 35 ,12, 16, E, None, None, ,  
08/19/2019 04:45, 62, 36, 35 ,12, 16, E, None, None, ,  
08/19/2019 04:35, 63, 35, 35 ,13, 16, E, None, None, ,  
08/19/2019 04:34, 62, 35, 35 ,12, 16, E, None, None, ,  
08/19/2019 04:25, 62, 36, 35 ,12, 16, E, None, None, ,  
08/19/2019 04:19, 62, 36, 35 ,13, 16, E, None, None, ,  
08/19/2019 04:15, 62, 35, 35 ,12, 17, E, None, None, ,  
08/19/2019 04:05, 62, 35, 35 ,13, 16, E, None, None, ,  
08/19/2019 04:04, 63, 35, 35 ,13, 16, E, None, None, ,  
08/19/2019 03:55, 63, 34, 35 ,12, 17, E, None, None, ,  
08/19/2019 03:49, 63, 34, 35 ,12, 17, E, None, None, ,  
08/19/2019 03:45, 63, 34, 35 ,15, 17, E, None, None, ,  
08/19/2019 03:35, 63, 34, 35 ,14, 17, E, None, None, ,  
08/19/2019 03:34, 63, 34, 35 ,14, 17, E, None, None, ,  
08/19/2019 03:25, 63, 34, 35 ,14, 16, E, None, None, ,  
08/19/2019 03:19, 63, 34, 35 ,14, 16, E, None, None, ,  
08/19/2019 03:14, 63, 34, 35 ,14, 17, E, None, None, ,  
08/19/2019 03:04, 64, 34, 35 ,14, 17, E, None, None, ,  
08/19/2019 03:04, 64, 33, 35 ,14, 17, E, None, None, ,  
08/19/2019 02:54, 64, 34, 35 ,15, 19, E, None, None, ,  
08/19/2019 02:49, 64, 33, 35 ,13, 17, E, None, None, ,  
08/19/2019 02:44, 64, 33, 35 ,14, 17, E, None, None, ,  
08/19/2019 02:34, 65, 32, 35 ,14, 20, E, None, None, ,  
08/19/2019 02:34, 65, 32, 35 ,14, 20, E, None, None, ,  
08/19/2019 02:24, 65, 32, 35 ,14, 20, SE, None, None, ,  
08/19/2019 02:19, 65, 32, 35 ,15, 21, E, None, None, ,  
08/19/2019 02:14, 65, 31, 35 ,16, 21, E, None, None, ,  
08/19/2019 02:04, 66, 31, 35 ,17, 22, E, None, None, ,  
08/19/2019 02:04, 66, 31, 35 ,17, 22, E, None, None, ,  
08/19/2019 01:54, 66, 31, 34 ,17, 21, E, None, None, ,  
08/19/2019 01:49, 66, 30, 35 ,16, 21, E, None, None, ,  
08/19/2019 01:44, 66, 30, 34 ,17, 20, E, None, None, ,  
08/19/2019 01:34, 66, 30, 34 ,15, 21, E, None, None, ,  
08/19/2019 01:34, 66, 30, 34 ,15, 21, E, None, None, ,  
08/19/2019 01:24, 66, 30, 35 ,18, 22, E, None, None, ,  
08/19/2019 01:19, 66, 31, 35 ,17, 21, E, None, None, ,  
08/19/2019 01:14, 66, 31, 34 ,17, 21, E, None, None, ,  
08/19/2019 01:04, 65, 31, 35 ,17, 21, E, None, None, ,  
08/19/2019 01:04, 65, 31, 35 ,17, 21, E, None, None, ,  
08/19/2019 00:54, 65, 32, 35 ,16, 19, E, None, None, ,  
08/19/2019 00:49, 65, 32, 35 ,14, 18, E, None, None, ,  
08/19/2019 00:44, 64, 32, 35 ,14, 18, E, None, None, ,  
08/19/2019 00:34, 63, 34, 34 ,12, 14, E, None, None, ,  
08/19/2019 00:34, 63, 34, 34 ,12, 14, E, None, None, ,  
08/19/2019 00:24, 63, 33, 34 ,12, 14, E, None, None, ,  
08/19/2019 00:19, 64, 32, 34 ,11, 15, E, None, None, ,  
08/19/2019 00:14, 64, 32, 34 ,13, 15, E, None, None, ,  
08/19/2019 00:04, 64, 32, 34 ,12, 13, E, None, None, ,  
08/19/2019 00:04, 64, 32, 34 ,12, 13, E, None, None, ,  
08/18/2019 23:53, 65, 31, 35 ,12, 14, E, None, None, ,  
08/18/2019 23:49, 65, 31, 35 ,11, 14, E, None, None, ,  
08/18/2019 23:43, 65, 31, 35 ,11, 14, E, None, None, ,  
08/18/2019 23:34, 65, 31, 35 ,9, 12, E, None, None, ,  
08/18/2019 23:33, 65, 31, 35 ,10, 12, E, None, None, ,  
Change End Date:

Copyright © 1998-2015 Vaisala, Inc.
All Rights Reserved
Send comments about the data to:
SCAN Web ® is a registered trademark of Vaisala, Inc.
SCAN Web Version 6.0